EHI
33 30 26 22 20 22 23 19 13 10 6 4 4 5 5 3 1 0 0 0 0 0 0 0 0 0 0 0 0 0 0 0 0 0 0 0 0 0 1 2 2 2 3
26 22 17 14 13 15 18 17 15 14 13 11 9 7 5 4 2 1 0 0 0 0 0 0 0 0 0 0 0 0 0 0 0 0 0 0 0 0 0 1 1 1 1
20 17 12 7 6 8 12 18 27 32 29 24 15 7 4 3 2 1 0 0 0 0 0 0 0 0 0 0 0 0 0 0 0 0 0 0 0 0 0 0 0 0 0
17 17 12 6 4 6 14 32 51 56 50 37 21 8 3 1 1 1 1 1 0 0 0 0 0 0 0 0 0 0 0 0 0 0 0 0 0 0 0 0 0 0 0
11 12 11 7 5 7 21 48 71 75 66 49 29 13 4 1 0 1 2 1 0 0 0 0 0 0 0 0 0 0 0 0 0 0 0 0 0 0 0 0 0 0 0
8 9 8 9 9 12 26 53 77 81 70 53 32 17 8 3 1 1 1 0 0 0 0 0 0 0 0 0 0 0 0 0 0 0 0 0 0 0 0 0 0 0 0
8 8 7 10 13 17 28 52 72 75 63 46 28 16 8 4 2 1 0 0 0 0 0 0 0 0 0 0 0 0 0 0 0 0 0 0 0 0 0 0 0 0 0
7 6 5 8 13 18 29 48 64 64 51 35 23 14 7 3 1 0 0 0 0 0 0 0 0 0 0 0 0 0 0 0 0 0 0 0 0 0 0 0 0 0 0
6 6 4 5 9 19 30 44 53 51 36 24 16 10 5 2 0 0 0 0 0 0 0 0 0 0 0 0 0 0 0 0 0 0 0 0 0 0 0 0 0 0 0
5 5 4 4 8 17 28 35 39 35 23 13 8 4 3 2 1 1 0 0 0 0 0 0 0 0 0 0 0 0 0 0 0 0 0 0 0 0 0 0 0 0 0
2 2 2 4 7 12 17 22 24 21 13 6 2 1 1 1 2 1 0 0 0 0 0 0 0 0 0 0 0 0 0 0 0 0 0 0 0 0 0 0 0 0 0
0 0 1 4 6 7 8 10 10 9 5 2 1 1 1 1 1 1 0 0 0 0 0 0 0 0 0 0 0 0 0 0 0 0 0 0 0 0 0 0 0 0 0
0 2 6 10 9 6 4 3 2 2 1 1 1 2 2 2 2 2 1 1 1 0 0 0 0 0 0 0 0 0 0 0 0 0 0 0 0 0 0 0 0 0 0
1 7 20 25 19 10 4 1 0 0 0 0 2 3 3 3 4 4 3 2 1 0 0 0 0 0 0 0 0 0 0 0 0 0 0 0 0 0 0 0 0 0 0
2 11 31 41 33 19 8 2 1 1 1 1 2 3 3 3 4 5 5 3 1 0 0 0 0 0 0 0 0 0 0 0 0 0 0 0 0 0 0 0 0 0 0
2 11 33 50 50 35 20 12 9 7 6 5 4 3 3 3 3 3 3 2 1 1 1 0 0 0 0 0 0 0 0 0 0 0 0 0 0 0 0 0 0 0 0
1 9 28 52 61 50 37 31 25 18 15 12 8 5 4 4 4 3 3 3 4 5 4 2 0 0 0 0 0 0 0 0 0 0 0 0 0 0 0 0 0 0 0
2 6 19 37 50 50 47 46 39 30 24 19 14 9 7 7 7 6 6 8 10 9 6 2 0 0 0 0 0 0 0 0 0 0 0 0 0 0 0 0 0 0 0
1 3 7 17 33 46 54 54 48 39 31 24 20 15 12 11 11 11 11 13 14 11 5 1 0 0 0 0 0 0 0 0 0 0 0 0 0 0 0 0 0 0 0
8 7 6 12 33 57 67 66 60 51 41 33 28 24 20 19 18 18 18 16 12 8 4 1 1 2 1 0 0 0 0 0 0 0 0 0 0 0 0 0 0 0 0
20 19 20 29 50 73 81 80 75 67 56 45 38 33 28 23 21 24 25 17 9 6 3 2 3 3 1 0 0 0 0 0 0 0 0 0 0 0 0 0 0 0 0
30 32 40 53 69 82 88 87 86 81 70 58 49 42 35 26 21 25 25 17 9 5 3 3 4 2 1 0 0 0 0 0 0 0 0 0 0 0 0 0 0 0 0
31 35 45 59 71 77 80 81 83 83 76 68 61 53 44 33 27 24 19 13 9 5 2 3 3 2 1 0 0 0 0 0 0 0 0 0 0 0 0 0 0 0 0
25 28 35 43 50 54 57 61 65 69 69 67 63 55 44 36 31 25 16 10 8 5 3 3 3 2 1 1 0 0 0 0 0 0 0 0 0 0 0 0 0 0 0
14 16 20 23 25 28 32 36 42 49 54 54 49 40 30 26 26 23 16 10 7 5 4 4 3 1 0 0 0 0 0 0 0 0 0 0 0 0 0 0 0 0 0
8 9 11 12 13 14 17 22 28 37 43 44 37 25 18 17 20 20 15 8 4 3 2 2 2 1 0 0 0 0 0 0 0 0 0 0 0 0 0 0 0 0 0
Wind_Speed
9 9 10 11 11 9 8 6 6 5 2 1 0 1 1 1 1 2 5 3 3 4 4 4 5 4 3 4 5 4 5 4 3 3 4 5 6 6 5 5 4 4 5
9 9 8 10 11 9 8 6 6 6 4 2 1 1 1 2 1 1 2 2 3 3 4 5 4 5 4 4 3 3 3 4 4 3 4 4 4 3 3 2 3 4 2
11 11 10 10 10 10 9 8 7 6 5 3 2 1 0 2 1 1 1 3 2 2 3 3 3 4 5 4 4 4 4 4 4 4 2 3 3 5 4 2 1 1 2
12 12 11 10 10 10 10 8 7 6 5 4 2 2 2 2 2 0 1 2 1 2 1 2 3 3 4 5 5 6 5 4 4 4 3 2 2 2 4 4 2 2 3
13 13 13 11 11 10 9 8 8 7 5 4 3 2 2 2 2 3 2 1 3 3 3 1 1 2 4 3 4 4 4 4 4 4 5 5 4 3 4 5 4 3 2
12 12 12 10 9 8 7 7 8 7 5 5 3 2 2 2 3 3 4 3 3 2 3 2 1 2 3 3 4 4 5 4 4 4 4 4 4 4 3 4 5 4 3
11 12 11 10 9 8 7 7 8 7 6 5 4 3 2 2 4 5 4 3 3 2 2 2 1 2 3 4 4 4 5 5 5 4 4 4 4 4 4 4 5 5 4
12 13 12 10 9 8 7 7 8 7 6 5 4 3 2 3 3 2 2 3 3 3 0 1 2 4 4 5 4 4 5 5 4 5 5 3 4 4 4 4 4 5 5
13 12 12 10 9 7 7 6 7 7 6 5 5 4 4 4 4 3 4 4 3 4 3 2 3 4 4 5 5 4 5 5 5 5 5 4 4 4 4 4 4 4 6
11 11 11 10 9 8 7 6 7 6 5 5 5 5 6 6 5 5 5 4 4 5 4 5 5 5 5 5 5 5 6 5 5 5 5 5 4 4 4 4 4 4 5
11 10 9 9 9 9 9 7 7 7 6 5 5 4 3 3 4 5 5 5 5 5 5 5 5 5 6 6 5 6 6 6 6 6 6 6 6 4 4 4 4 5 4
9 10 10 9 8 9 9 9 8 8 7 6 6 5 5 5 5 6 5 5 5 5 6 5 5 6 7 6 6 6 7 6 6 6 7 7 6 6 5 5 5 5 5
7 8 9 9 8 7 8 9 9 9 8 8 7 6 6 6 6 5 5 5 5 5 5 5 6 6 6 6 6 6 6 7 7 7 7 7 7 6 5 5 5 5 6
7 6 7 8 7 7 7 6 8 8 7 7 7 7 6 6 5 5 5 5 5 5 5 6 6 6 6 6 7 7 6 6 6 6 7 7 7 7 6 6 6 6 6
8 7 7 8 7 7 7 7 7 6 6 6 6 6 6 6 5 5 4 4 5 6 5 5 5 6 6 7 5 5 7 5 5 6 7 8 10 10 8 7 5 5 4
7 9 9 10 10 9 8 8 8 7 7 6 6 5 5 5 4 4 5 5 5 5 5 6 6 7 8 3 1 3 5 6 7 7 7 9 10 12 14 14 12 10 7
6 8 10 10 10 10 10 9 9 8 8 8 7 6 6 6 5 6 5 4 4 5 5 6 6 7 7 7 7 8 6 7 7 8 8 10 11 9 6 9 13 14 16
4 6 8 10 11 11 11 10 10 9 9 9 9 8 7 6 5 5 5 4 4 4 5 6 6 7 8 9 10 10 8 9 9 10 10 10 9 11 8 7 7 7 9
1 2 5 9 10 11 11 12 11 10 11 10 9 9 8 7 6 5 5 4 4 5 6 7 7 8 8 9 11 11 7 8 10 10 11 10 10 11 11 8 7 7 7
1 3 5 5 6 8 9 11 11 11 11 10 9 8 7 6 6 6 5 5 4 6 7 8 7 8 8 8 11 12 7 8 9 8 9 12 13 12 10 8 7 8 7
5 3 2 3 3 4 6 8 9 9 9 8 8 8 7 7 7 6 5 5 6 7 8 8 7 8 9 10 12 14 8 8 8 8 6 5 6 9 11 10 7 8 6
10 7 4 3 2 1 3 5 6 5 5 6 7 7 7 8 8 7 7 7 7 8 8 9 9 9 9 11 12 16 17 12 9 8 7 4 2 4 8 8 9 9 7
13 11 10 8 7 5 2 3 3 3 4 5 6 6 7 7 6 6 7 7 7 8 9 8 7 6 5 6 13 15 16 16 10 8 10 8 7 7 8 13 14 10 7
13 13 12 11 9 9 7 5 4 3 4 5 5 5 6 7 7 7 7 8 8 8 8 7 6 5 4 3 3 5 7 10 10 9 10 12 14 13 12 11 10 9 9
11 11 10 9 9 9 8 7 6 4 5 6 6 7 9 9 8 8 8 9 8 8 7 5 4 4 5 1 2 1 3 3 2 3 5 7 8 8 8 9 8 8 8
10 9 10 10 9 8 8 7 6 6 6 6 7 8 8 8 8 9 10 15 16 16 16 14 11 7 8 7 7 7 6 5 3 3 8 9 9 9 8 8 7 7 8
Wind_Direction
137 140 142 143 143 142 143 152 152 143 160 153 124 27 46 357 2 91 96 44 17 11 324 343 351 335 343 345 332 341 325 306 282 282 288 277 258 244 232 229 235 238 231
144 150 154 159 155 156 159 163 167 169 182 162 161 187 241 283 271 67 126 103 47 355 339 25 340 351 341 316 321 329 315 312 322 314 308 303 296 333 267 210 217 231 239
161 162 175 173 168 169 175 184 181 175 184 180 222 263 210 271 297 48 68 71 30 339 342 342 341 346 325 339 345 331 330 320 314 298 296 309 333 338 319 323 248 205 225
166 169 182 181 183 182 185 186 175 177 178 189 228 272 291 306 332 348 77 65 301 275 307 336 350 348 326 324 330 21 342 329 318 318 313 295 306 302 316 324 321 248 228
175 179 187 188 193 193 189 180 171 173 178 193 210 236 287 328 358 9 353 322 264 224 218 192 358 331 305 328 354 334 329 319 312 322 327 325 310 265 262 292 305 303 268
181 181 189 187 193 195 185 169 161 168 174 186 214 215 260 302 318 313 301 290 280 238 186 174 122 309 308 343 334 316 306 309 318 317 308 307 305 304 300 296 301 299 297
183 182 190 189 190 194 183 167 156 163 173 187 204 212 230 258 254 252 266 274 292 303 98 77 72 297 304 296 282 282 281 286 289 291 285 294 303 304 301 296 297 298 297
188 190 192 192 188 191 183 172 157 161 173 189 196 199 215 253 269 282 318 315 304 304 357 223 237 247 258 274 283 290 284 278 277 277 280 281 278 280 286 283 291 296 294
188 190 190 190 183 180 171 165 153 161 177 192 187 190 207 234 277 306 281 267 266 280 296 290 272 262 258 261 268 268 277 283 277 274 278 272 279 284 282 283 275 278 288
189 189 185 181 171 168 158 155 151 161 174 195 204 214 200 210 222 242 266 282 287 282 278 270 271 270 264 258 254 261 264 267 267 261 262 269 271 281 293 293 288 277 273
188 180 175 169 168 168 160 159 158 165 180 201 211 235 234 237 236 234 241 247 253 262 266 265 263 264 264 259 253 252 259 264 264 266 265 259 260 266 276 284 287 285 282
182 172 164 159 167 174 167 166 170 180 188 198 201 208 217 229 242 252 251 252 252 253 259 260 263 263 265 264 264 265 267 265 266 266 265 264 264 255 256 264 273 278 280
176 170 158 160 172 177 174 175 181 191 193 193 195 204 211 222 229 239 248 253 256 258 263 265 268 270 270 269 268 265 264 264 265 266 265 262 261 260 256 259 265 273 279
169 174 156 159 170 174 173 179 188 191 191 190 196 202 208 221 230 238 244 248 253 258 261 262 264 267 270 268 266 265 262 261 264 265 266 264 260 257 254 256 254 260 269
176 177 168 163 171 177 178 185 192 190 193 192 201 204 205 213 223 232 240 248 254 264 266 268 270 271 271 269 272 272 270 272 277 277 273 268 263 258 251 255 256 267 274
195 186 180 175 179 186 189 192 194 191 185 195 207 209 208 215 226 236 240 244 245 252 257 263 268 270 274 264 200 259 290 290 283 279 276 275 268 257 240 238 241 243 251
207 193 184 183 184 189 192 196 193 192 190 194 205 209 205 214 222 238 246 252 261 265 263 263 265 266 268 258 233 231 254 267 267 268 270 274 274 280 259 241 239 242 244
233 201 188 184 186 191 193 194 194 193 196 198 203 206 208 215 216 222 236 247 252 259 264 266 269 267 266 257 236 227 240 260 262 260 259 260 264 270 270 268 257 247 245
253 215 209 205 193 194 192 188 196 194 200 203 203 204 205 209 213 220 229 236 245 253 258 262 259 259 260 249 229 219 244 256 260 258 257 254 253 253 248 248 254 258 260
272 223 227 225 199 192 187 186 196 200 204 205 200 199 196 201 209 217 222 232 239 250 256 257 255 258 261 252 230 213 238 257 262 261 256 254 251 248 232 231 243 253 259
354 332 276 251 229 189 183 193 200 206 205 202 198 194 191 194 206 214 217 224 237 248 253 257 258 256 254 252 236 213 227 249 263 269 272 274 267 239 226 226 241 251 264
8 0 348 337 317 221 185 204 215 214 204 203 203 197 194 208 215 210 216 221 233 248 253 253 254 251 243 238 232 215 217 233 251 264 273 282 287 239 231 229 242 250 255
16 10 8 9 6 1 342 256 245 232 227 221 216 208 206 209 217 220 224 225 229 242 252 255 256 254 243 224 217 215 218 225 235 256 267 274 258 246 241 240 241 242 243
20 15 14 12 8 2 352 332 306 264 237 235 233 227 226 229 226 226 233 237 239 242 245 250 259 267 264 247 198 201 218 227 235 251 263 261 252 242 249 253 238 231 236
21 17 12 6 2 359 353 343 335 313 273 255 247 247 245 243 239 231 231 235 239 242 246 255 262 274 278 234 125 260 271 281 315 303 275 270 264 250 240 237 236 230 225
16 11 5 358 354 350 344 341 335 322 304 284 271 266 260 251 243 239 238 229 229 236 228 226 233 247 247 240 237 236 236 238 233 258 263 264 263 262 258 250 240 233 232